Погода в Агиос-Николаосе

Греция     35°11′29″N   25°42′55″E
темп.,
°C
ветер,
м/с
пор.,
м/с
влажн.,
%
обл.,
%
осадки,
мм/ч
давл.,
гПа
погр.,
м
18 января, пн
пн1823:00+7зсз3471100 0.1 1016676
02:00+7зюз337063 0.1 1016465
05:00+7зюз117159 0.1 1016335
08:00+7юв126944 0.1 1014431
11:00+7св6892100 4.7 1014619
14:00+8св8992100 14.4 1013724
17:00+8ссв8989100 2.3 1015711
20:00+8с5768100 3.8 1016913
19 января, вт
вт1923:00+8с786799 0.0 1019961
02:00+7ссз896899 0.0 10191017
05:00+8ссз10117198 0.1 10201282
08:00+8ссз9116995 0.2 10211252
11:00+8ссз9116596 0.1 10221546
14:00+8ссз10116891 0.4 10211412
17:00+8сз9117286 0.4 10221366
20:00+8ссз11137385 1.6 10231330
20 января, ср
ср2023:00+8сз12156964 0.4 10251350
02:00+8сз11137477 0.8 10251253
05:00+8ссз10137184 0.2 10261305
08:00+9ссз9116858 0.2 10271167
11:00+10сз895849 0.0 10281292
14:00+11сз675024 0.0 10281024
17:00+10сз34520 0.0 1028539
20:00+9з33580 0.0 1028302
21 января, чт
чт2123:00+9юз23580 0.0 1028162
02:00+9юз225628 0.0 1028250
05:00+9зюз2256100 0.0 1027245
08:00+9юз2357100 0.0 1028241
11:00+13ююз125095 0.0 1029663
14:00+13в224750 0.0 1028945
17:00+12ссв33595 0.0 1027424
20:00+10ююз11654 0.0 1028430
22 января, пт
пт2223:00+10юз33703 0.0 1027106
02:00+10юз336850 0.0 1027155
05:00+9юз2270100 0.0 1025111
08:00+10юз2267100 0.0 1026113
11:00+13ю2358100 0.0 1026760
14:00+15ююз1254100 0.0 10251086
17:00+13ююв226546 0.0 1023460
20:00+11ююз347429 0.1 1024259